Flag for Italy Weather past 2 weeks in Modena, Italy

Now
72 °F

Sunny.


Feels Like: 77 °F
Forecast: 52 / 79 °F
Wind: 2 mph from North

Location: Bologna / Borgo Panigale

Current Time: Sep 5, 2015 at 7:25:50 PM

Latest Report: Sep 5, 2015 at 6:50 PM


Visibility: 10 mi

Pressure: 29.80 "Hg

Humidity: 53%

Dew point: 54 °F

Location of ModenaLocation

Historic Weather in Modena — Graph

°F

Modena temperature yesterday

Maximum temperature yesterday: 86 °F (at 2:50 PM)
Minimum temperature yesterday: 64 °F (at 5:50 AM)
Average temperature yesterday: 75 °F

Past Weeks' High & Low Weather Summary

 TemperatureHumidityPressure
High95 °F (Aug 30, 3:20 PM)100% (Aug 24, 4:50 AM)30.18 "Hg (Aug 24, 4:50 AM)
Low59 °F (Aug 23, 5:50 AM)23% (Sep 1, 3:20 PM)29.77 "Hg (Sep 2, 3:50 PM)
Average77 °F56%29.96 "Hg
* Reported Aug 21 5:20 PM — Sep 5 5:50 PM, Modena, Weather by CustomWeather, © 2015

Note: Actual official high and low records may vary slightly from our data, if they occured in-between our weather recording intervals... More about our weather records

Advertising

Modena weather history for previous 24 hours

 ConditionsComfort  
Time TempWeatherWind HumidityBarometerVisibility
5:50 PM
Sat, Sep 5
72 °FPassing clouds.7 mph53%29.83 "HgN/A
5:20 PM72 °FScattered clouds.14 mph50%29.83 "HgN/A
4:50 PM70 °FScattered clouds.17 mph57%29.80 "HgN/A
4:20 PM79 °FScattered clouds.6 mph51%29.77 "HgN/A
3:50 PM79 °FScattered clouds.8 mph51%29.77 "HgN/A
3:20 PM82 °FScattered clouds.5 mph40%29.77 "HgN/A
2:50 PM81 °FScattered clouds.7 mph42%29.80 "HgN/A
2:20 PM81 °FScattered clouds.3 mph42%29.80 "HgN/A
1:50 PM79 °FScattered clouds.5 mph45%29.80 "HgN/A
1:20 PM77 °FScattered clouds.3 mph51%29.83 "HgN/A
12:50 PM77 °FPassing clouds.7 mph51%29.83 "HgN/A
12:20 PM79 °FPassing clouds.6 mph51%29.83 "HgN/A
11:50 AM77 °FPassing clouds.5 mph51%29.83 "HgN/A
11:20 AM75 °FPassing clouds.6 mph57%29.83 "HgN/A
10:50 AM75 °FPassing clouds.6 mph57%29.83 "HgN/A
10:20 AM75 °FPassing clouds.2 mph57%29.83 "HgN/A
9:50 AM73 °FPassing clouds.1 mph57%29.83 "HgN/A
9:20 AM73 °FScattered clouds.3 mph57%29.83 "HgN/A
8:50 AM72 °FPartly sunny.5 mph61%29.83 "HgN/A
8:20 AM68 °FPartly sunny.5 mph73%29.83 "HgN/A
7:50 AM68 °FPartly sunny.2 mph78%29.83 "HgN/A
7:20 AM66 °FLight rain. Passing clouds.5 mph83%29.83 "HgN/A
6:50 AM68 °FLight rain. Passing clouds.2 mph69%29.80 "HgN/A
6:20 AM70 °FPassing clouds.5 mph57%29.80 "HgN/A
5:50 AM68 °FPassing clouds.5 mph64%29.80 "HgN/A
5:20 AM68 °FClear.5 mph60%29.80 "Hg10 mi
4:50 AM68 °FPassing clouds.3 mph56%29.80 "HgN/A
3:20 AM70 °FPassing clouds.3 mph50%29.80 "HgN/A
2:50 AM72 °FClear.6 mph47%29.80 "Hg10 mi
2:20 AM73 °FClear.9 mph41%29.80 "Hg10 mi
1:50 AM73 °FClear.8 mph44%29.83 "Hg10 mi
1:20 AM73 °FClear.6 mph47%29.83 "Hg10 mi
12:50 AM73 °FPassing clouds.6 mph50%29.83 "HgN/A
12:20 AM73 °FClear.7 mph47%29.83 "Hg10 mi
11:50 PM
Fri, Sep 4
73 °FClear.8 mph50%29.83 "Hg10 mi
11:20 PM73 °FPassing clouds.3 mph74%29.83 "HgN/A
10:50 PM73 °FClear.2 mph74%29.83 "Hg10 mi
10:20 PM73 °FPassing clouds.3 mph78%29.83 "HgN/A
9:50 PM73 °FPassing clouds.3 mph78%29.83 "HgN/A
9:20 PM72 °FPassing clouds.3 mph83%29.83 "HgN/A
8:50 PM73 °FPassing clouds.5 mph78%29.83 "HgN/A
8:20 PM73 °FPassing clouds.3 mph78%29.83 "HgN/A
7:50 PM73 °FScattered clouds.5 mph78%29.80 "HgN/A
7:20 PM73 °FScattered clouds.6 mph78%29.83 "HgN/A
Weather by CustomWeather, © 2015

See weather overviewHow to use our weather pages